Tracking 21094 objects as of 12-Aug-2020
HD Live streaming from Space Station
objects crossing your sky now
Track the most recent launched group of Starlink satellites

SATCOM 3 DEB

Track SATCOM 3 DEB now!


NORAD ID: 32987
Int'l Code: 1979-101N
Perigee: 8,023.5 km
Apogee: 35,601.9 km
Inclination: 8.2 °
Period: 784.8 minutes
Semi major axis: 28183 km
RCS: 0.005 m2 (small)
Launch date: December 7, 1979
Source: United States (US)
Launch site: AIR FORCE EASTERN TEST RANGE (AFETR)

Note: This is SATELLITE DEBRIS
aabbcc
Your satellite tracking list
Your tracking list is empty




NASA's NSSDC Master Catalog

Two Line Element Set (TLE):
1 32987U 79101N   20224.69143791 -.00000048 +00000-0 +00000-0 0  9990
2 32987 008.2301 252.3000 4892623 153.3617 224.9629 01.83487216083697
Source of the keplerian elements: AFSPC